Date String (YYYY-MM-DD hh:mm:ss) UTC,Instrument flags,Ambient pressure (hPa),Sample flow (lpm),Bypass flow (lpm),Sample temperature (°C),Ambient temperature (°C),ASC tube jacket temperature (°C),LED temperature (°C),Box temperature (°C),Sample RH (%),Span deviation,Mass concentration (μg/m³),Mass concentration (μg/m³),Mass concentration (μg/m³)
DateTimeUTC,F1_M11,P_M11,Q1_M11,Q2_M11,T1_M11,T2_M11,T3_M11,T4_M11,T5_M11,U1_M11,ZSPAN_M11,X0_M11,X2_M11,X1_M11
2021-11-13 23:00:00,,0826.2,4.99,0.00,28.3,27.5,00.0,37.3,30.1,12.0,0000.0,0004.95,0001.27,0000.44
2021-11-13 23:01:00,,0826.2,5.00,0.00,28.3,27.5,00.0,37.3,30.1,11.9,0000.0,0005.86,0001.31,0000.44
2021-11-13 23:02:00,,0826.4,5.00,0.00,28.3,27.5,00.0,37.3,30.1,12.0,0000.0,0006.49,0001.33,0000.45
2021-11-13 23:03:00,,0826.3,5.00,0.00,28.3,27.5,00.0,37.3,30.0,12.0,0000.0,0006.24,0001.36,0000.45
2021-11-13 23:04:00,,0826.2,5.00,0.00,28.3,27.5,00.0,37.3,30.1,11.9,0000.0,0006.22,0001.37,0000.45
2021-11-13 23:05:00,,0826.1,5.00,0.00,28.3,27.5,00.0,37.3,30.1,11.8,0000.0,0006.03,0001.36,0000.45
2021-11-13 23:06:00,,0826.1,5.01,0.00,28.3,27.5,00.0,37.3,30.1,11.9,0000.0,0005.85,0001.37,0000.45
2021-11-13 23:07:00,,0826.1,5.00,0.00,28.3,27.5,00.0,37.3,30.0,11.9,0000.0,0005.80,0001.35,0000.44
2021-11-13 23:08:00,,0826.0,4.99,0.00,28.3,27.5,00.0,37.3,30.0,11.7,0000.0,0005.76,0001.30,0000.44
2021-11-13 23:09:00,,0826.1,5.01,0.00,28.3,27.5,00.0,37.3,30.1,11.7,0000.0,0005.32,0001.17,0000.42
2021-11-13 23:10:00,,0826.2,5.00,0.00,28.3,27.5,00.0,37.3,30.1,11.8,0000.0,0004.95,0000.98,0000.41
2021-11-13 23:11:00,,0826.1,5.01,0.00,28.3,27.5,00.0,37.3,30.1,11.8,0000.0,0005.10,0000.95,0000.40
2021-11-13 23:12:00,,0826.3,5.00,0.00,28.3,27.5,00.0,37.3,30.0,11.9,0000.0,0005.17,0000.96,0000.40
2021-11-13 23:13:00,,0826.1,5.01,0.00,28.3,27.5,00.0,37.3,30.0,11.7,0000.0,0005.06,0000.97,0000.40
2021-11-13 23:14:00,,0826.4,4.99,0.00,28.3,27.5,00.0,37.3,30.1,11.6,0000.0,0005.46,0000.91,0000.39
2021-11-13 23:15:00,,0826.3,5.00,0.00,28.3,27.5,00.0,37.3,30.0,11.6,0000.0,0005.33,0000.88,0000.39
2021-11-13 23:16:00,,0826.3,5.00,0.00,28.3,27.5,00.0,37.3,30.1,11.7,0000.0,0005.42,0000.88,0000.39
2021-11-13 23:17:00,,0826.5,4.99,0.00,28.3,27.4,00.0,37.3,30.0,11.7,0000.0,0005.55,0000.89,0000.39
2021-11-13 23:18:00,,0826.3,5.01,0.00,28.3,27.5,00.0,37.3,30.0,11.8,0000.0,0005.56,0000.92,0000.40
2021-11-13 23:19:00,,0826.3,4.99,0.00,28.3,27.5,00.0,37.3,30.0,11.8,0000.0,0005.44,0000.89,0000.40
2021-11-13 23:20:00,,0826.2,4.99,0.00,28.3,27.5,00.0,37.3,30.0,11.7,0000.0,0005.80,0000.85,0000.39
2021-11-13 23:21:00,,0826.5,5.00,0.00,28.3,27.5,00.0,37.3,30.0,11.7,0000.0,0004.86,0000.81,0000.39
2021-11-13 23:22:00,,0826.4,5.01,0.00,28.3,27.4,00.0,37.3,29.9,11.7,0000.0,0004.33,0000.78,0000.38
2021-11-13 23:23:00,,0826.3,5.01,0.00,28.3,27.5,00.0,37.3,29.9,11.5,0000.0,0003.08,0000.70,0000.38
2021-11-13 23:24:00,,0826.5,5.00,0.00,28.2,27.4,00.0,37.3,29.9,11.4,0000.0,0002.83,0000.70,0000.38
2021-11-13 23:25:00,,0826.5,5.00,0.00,28.3,27.4,00.0,37.3,29.9,11.5,0000.0,0002.52,0000.76,0000.39
2021-11-13 23:26:00,,0826.6,4.99,0.00,28.3,27.4,00.0,37.3,30.0,11.7,0000.0,0002.71,0000.82,0000.40
2021-11-13 23:27:00,,0826.6,5.00,0.00,28.2,27.4,00.0,37.3,30.0,11.7,0000.0,0002.69,0000.80,0000.40
2021-11-13 23:28:00,,0826.8,4.99,0.00,28.2,27.4,00.0,37.3,30.0,11.8,0000.0,0002.58,0000.75,0000.40
2021-11-13 23:29:00,,0826.8,5.01,0.00,28.2,27.4,00.0,37.3,29.9,11.9,0000.0,0002.56,0000.73,0000.39
2021-11-13 23:30:00,,0827.0,5.00,0.00,28.2,27.4,00.0,37.3,29.9,11.8,0000.0,0002.52,0000.73,0000.40
2021-11-13 23:31:00,,0826.8,4.99,0.00,28.2,27.4,00.0,37.3,30.0,11.8,0000.0,0001.89,0000.72,0000.39
2021-11-13 23:32:00,,0826.9,4.99,0.00,28.2,27.4,00.0,37.3,30.0,11.7,0000.0,0001.95,0000.72,0000.39
2021-11-13 23:33:00,,0826.8,5.00,0.00,28.2,27.4,00.0,37.3,30.0,11.7,0000.0,0002.01,0000.73,0000.40
2021-11-13 23:34:00,,0826.8,5.00,0.00,28.2,27.5,00.0,37.3,30.0,11.8,0000.0,0002.00,0000.72,0000.40
2021-11-13 23:35:00,,0826.8,4.98,0.00,28.2,27.5,00.0,37.3,30.0,11.8,0000.0,0001.79,0000.68,0000.40
2021-11-13 23:36:00,,0826.6,5.01,0.00,28.2,27.5,00.0,37.3,30.0,11.6,0000.0,0001.62,0000.64,0000.39
2021-11-13 23:37:00,,0826.6,4.99,0.00,28.3,27.5,00.0,37.3,30.0,11.6,0000.0,0001.80,0000.61,0000.39
2021-11-13 23:38:00,,0826.5,5.01,0.00,28.3,27.5,00.0,37.3,30.0,11.5,0000.0,0003.08,0000.70,0000.39
2021-11-13 23:39:00,,0826.5,5.00,0.00,28.2,27.4,00.0,37.3,29.9,11.4,0000.0,0003.04,0000.69,0000.39
2021-11-13 23:40:00,,0826.6,5.00,0.00,28.2,27.4,00.0,37.3,29.9,11.4,0000.0,0002.95,0000.67,0000.39
2021-11-13 23:41:00,,0826.7,5.01,0.00,28.2,27.5,00.0,37.3,30.0,11.4,0000.0,0003.26,0000.68,0000.40
2021-11-13 23:42:00,,0826.5,5.00,0.00,28.2,27.5,00.0,37.3,30.0,11.4,0000.0,0004.83,0000.69,0000.40
2021-11-13 23:43:00,,0826.5,5.00,0.00,28.2,27.5,00.0,37.3,30.0,11.3,0000.0,0005.50,0000.73,0000.41
2021-11-13 23:44:00,,0826.5,5.00,0.00,28.2,27.5,00.0,37.3,30.0,11.3,0000.0,0005.64,0000.78,0000.42
2021-11-13 23:45:00,,0826.2,4.99,0.00,28.3,27.5,00.0,37.3,29.9,11.3,0000.0,0005.70,0000.80,0000.43
2021-11-13 23:46:00,,0826.1,4.99,0.00,28.3,27.5,00.0,37.3,30.0,11.2,0000.0,0005.84,0000.85,0000.45
2021-11-13 23:47:00,,0825.8,5.02,0.00,28.3,27.4,00.0,37.3,30.1,11.0,0000.0,0006.09,0000.93,0000.45
2021-11-13 23:48:00,,0825.9,4.99,0.00,28.3,27.4,00.0,37.3,30.1,10.8,0000.0,0005.76,0000.94,0000.45
2021-11-13 23:49:00,,0826.2,5.00,0.00,28.3,27.4,00.0,37.3,30.1,10.9,0000.0,0004.50,0000.88,0000.45
2021-11-13 23:50:00,,0826.1,4.99,0.00,28.3,27.3,00.0,37.3,30.0,10.9,0000.0,0004.44,0000.87,0000.45
2021-11-13 23:51:00,,0826.2,5.00,0.00,28.2,27.3,00.0,37.3,30.0,10.8,0000.0,0004.45,0000.87,0000.46
2021-11-13 23:52:00,,0826.2,5.00,0.00,28.3,27.3,00.0,37.3,30.0,10.9,0000.0,0004.15,0000.88,0000.46
2021-11-13 23:53:00,,0826.2,5.01,0.00,28.3,27.4,00.0,37.3,30.0,10.9,0000.0,0002.92,0000.92,0000.47
2021-11-13 23:54:00,,0826.2,5.00,0.00,28.3,27.4,00.0,37.3,30.0,10.9,0000.0,0002.39,0000.90,0000.47
2021-11-13 23:55:00,,0826.4,5.00,0.00,28.3,27.4,00.0,37.3,30.0,11.0,0000.0,0002.26,0000.86,0000.46
2021-11-13 23:56:00,,0826.5,5.00,0.00,28.3,27.4,00.0,37.3,30.0,11.0,0000.0,0002.26,0000.86,0000.46
2021-11-13 23:57:00,,0826.3,5.00,0.00,28.2,27.3,00.0,37.3,30.0,11.1,0000.0,0002.21,0000.85,0000.45
2021-11-13 23:58:00,,0826.2,5.01,0.00,28.2,27.3,00.0,37.3,29.9,11.1,0000.0,0002.00,0000.79,0000.46
2021-11-13 23:59:00,,0826.3,5.00,0.00,28.1,27.2,00.0,37.2,29.9,11.1,0000.0,0001.97,0000.77,0000.47
